Tracking 21992 objects as of 26-Nov-2020
HD Live streaming from Space Station
objects crossing your sky now

DELTA 1 R/B

Track DELTA 1 R/B now!
10-day predictions
DELTA 1 R/B is classified as:


NORAD ID: 20323
Int'l Code: 1989-089B
Perigee: 686.1 km
Apogee: 790.1 km
Inclination: 97.1 °
Period: 99.4 minutes
Semi major axis: 7109 km
RCS: 8.9124 m2 (large)
Launch date: November 18, 1989
Source: United States (US)
Launch site: AIR FORCE WESTERN TEST RANGE (AFWTR)

Note: This is a ROCKET BODY
aabbcc
Your satellite tracking list
Your tracking list is empty




NASA's NSSDC Master Catalog

Two Line Element Set (TLE):
1 20323U 89089B   20330.87982236 +.00000077 +00000-0 +28847-4 0  9994
2 20323 097.1130 091.0997 0073193 083.3677 277.5844 14.48370224616235
Source of the keplerian elements: AFSPC